Regional Weather Roundup
Issued by NWS

Home | Current Version | Previous Version | Graphics & Text | Print | Product List | Glossary On
Versions: 1 2 3 4 5 6 7 8 9 10 11 12 13 14 15 16 17 18 19 20 21 22 23 24 25 26 27 28 29 30 31 32 33 34 35 36 37 38 39 40 41 42 43 44 45 46 47 48 49 50
000
ASUS43 KTOP 222208
RWRKS

WEATHER ROUNDUP FOR KANSAS
NATIONAL WEATHER SERVICE GOODLAND KS
500 PM CDT TUE JUL 22 2014

NOTE:  "FAIR" INDICATES FEW OR NO CLOUDS BELOW 12,000 FEET WITH NO
SIGNIFICANT WEATHER AND/OR OBSTRUCTIONS TO VISIBILITY.

KSZ001>006-013>018-027>032-041>047-222300-
NORTHWEST KANSAS

CITY           SKY/WX    TMP DP  RH WIND       PRES   REMARKS
GOODLAND       SUNNY     95  61  32 SE3       30.17F HX  95
HAYS           SUNNY     99  66  34 SW8       30.07F HX 102
HILL CITY      SUNNY    100  65  31 SE9       30.08S HX 103
RUSSELL        SUNNY     98  68  37 S8        30.05F HX 103
$$

KSZ061>065-074>080-084>089-222300-
SOUTHWEST KANSAS

CITY           SKY/WX    TMP DP  RH WIND       PRES   REMARKS
DODGE CITY     SUNNY     95  63  34 S12       30.11F HX  96
ELKHART          N/A     93  64  38 SE7         N/A
GARDEN CITY    SUNNY     93  67  42 S9        30.12S HX  96
GREAT BEND     SUNNY     99  64  32 S13       30.05F HX 101
LIBERAL        SUNNY     97  64  34 SW8       30.12F HX  99
PRATT          SUNNY     95  64  36 S9        30.10S HX  97
$$

KSZ066>073-081>083-090>101-222300-
SOUTHEAST KANSAS

CITY           SKY/WX    TMP DP  RH WIND       PRES   REMARKS
CHANUTE        SUNNY     97  73  45 SW7       30.03F HX 107
COFFEYVILLE    SUNNY     96  73  47 VRB6      30.02F HX 105
HUTCHINSON     SUNNY    101  65  30 SW9       30.04F HX 104
MEDICINE LODGE   N/A     98  67  36 SW8       30.05S HX 102
NEWTON         MOSUNNY   97  64  34 SW6       30.09F HX  99
PARSONS        SUNNY     97  73  45 VRB6      30.04F HX 107
WICHITA INTL   MOSUNNY   97  71  42 S10       30.04S HX 104
WICHITA JABRA  SUNNY     97  71  42 S9        30.05S HX 104
WICHITA MCCONL MOSUNNY   96  71  44 SE10      30.05F HX 103
WINFIELD       SUNNY     95  75  52 S10       30.05F HX 107
$$

KSZ007>012-019>026-033>040-048>060-102>105-222300-
NORTHEAST KANSAS

CITY           SKY/WX    TMP DP  RH WIND       PRES   REMARKS
CONCORDIA      SUNNY    101  61  26 SW3       30.03S HX 102
EMPORIA        MOSUNNY  100  68  35 VRB7      30.02F HX 105
LAWRENCE       MOSUNNY   99  72  41 SW13      29.99S HX 108
MANHATTAN      SUNNY    103  66  30 W7        30.00S HX 107
MARYSVILLE     MOSUNNY   95  77  55 N10       30.03R HX 109
OLATHE IND     MOSUNNY   99  71  40 SW13      30.01F HX 107
OLATHE EXE     MOSUNNY   95  74  50 S10       30.00F HX 105
SALINA         SUNNY    104  63  26 W13       30.02S HX 106
TOPEKA BILLARD SUNNY    103  66  30 W9        29.99S HX 107
TOPEKA FORBES  MOSUNNY  102  67  31 VRB7      30.00F HX 107
$$



USA.gov is the U.S. government's official web portal to all federal, state and local government web resources and services.